World > North America > United States > New York > Bombay

Bombay, NY Hourly Weather Conditions

Feedback E-mail the Weather

Quick WX

Bombay, NY Weather Maps

°F °C°F °C
Bombay Weather Map
UTC Time: 11/28/2022, 09:41
Your Time:

Bombay, NY Regional Weather

Expires:202211281000;;938231
ASUS41 KBTV 280930
RWRBTV
VERMONT REGIONAL WEATHER ROUNDUP
NATIONAL WEATHER SERVICE BURLINGTON VT
400 AM EST MON NOV 28 2022

NOTE: "FAIR" INDICATES FEW OR NO CLOUDS BELOW 12,000 FEET WITH NO 
SIGNIFICANT WEATHER AND/OR OBSTRUCTIONS TO VISIBILITY.

* THESE REPORTS ARE NOT UNDER NWS QUALITY CONTROL AND/OR DO NOT
  REPORT WEATHER SUCH AS PRECIPITATION AND FOG.


NYZ007-026>031-035-052-083-087-281000-
_____NORTHERN NEW YORK_
  
CITY           SKY/WX    TMP DP  RH WIND       PRES   REMARKS
PLATTSBURGH    CLOUDY    38  36  92 NW8       29.41R FOG              
SARANAC LAKE   LGT SNOW  34  32  92 VRB7      29.39R FOG     WCI  28  
MASSENA        CLOUDY    38 N/A N/A NW8       29.49R                  
OGDENSBURG*    CLOUDY    37  37 100 NW8G15    29.51R WCI  31          
POTSDAM*       CLOUDY    37  37 100 NW8       29.50R FOG     WCI  31  
WATERTOWN      CLOUDY    38  36  92 NW8       29.54R                  
FT DRUM        MIX PCPN  37  36  93 NW8       29.51R WCI  31          
ALBANY         CLOUDY    50  44  80 NW18      29.40R                  
GLENS FALLS    CLOUDY    47  44  90 SW8       29.35R                  

$$

SKY/WX - Weather  TMP - Temperature  DP - Dew Point  RH - Humidity
WIND - Wind Direction/Speed PRES - Barometric Pressure VSB - Visibility
WCI - Wind Chill Index E13G22 Wind - East Wind 13 mph/Gusts of 22 mph

Trending Headlines

Trending Entertainment Headlines

Bombay Radar Loop

Use the map search tool if you want to place a location marker on the radar map...

Bombay Quick Facts

National Two Day Weather Forecast


E-mail the Bombay Weather Forecast

Voice your opinion or tell us about page issues...